MARIO (55123 NORAD) Tracking and Keplerian Element Data

This shows tracking and keplerian element data for the satellite.

Feedback or suggestion? Click here.




ElementValue
Catalog55123
NameMARIO
Epoch Orbit1358
Epoch Day85.08069671
Epoch Year2023
RAAN14.3146
Inclination51.6366
Eccentricity0.0008109
Argument of Perigee150.7249
Mean Anonmoly209.4205
Mean Motion15.72711004
Decay Rate0.00267587
L11 55123U 98067UQ 23085.08069671 .00267587 00000+0 18841-2 0 9999
L22 55123 51.6366 14.3146 0008109 150.7249 209.4205 15.72711004 13587



Live tracking and technical data element details for MARIO (NORAD 55123). MARIO can be tracked NOW for your location showing map with azimuth and elevation plus other details from your city location.







IsCatalogInMostPopularTable: catalog: 55123, numindb: 11
Update: records affected: 1



GetName: 55123 MARIO

Hit Count: updated at: Mon, 27 Mar 2023 08:23:20 GMT